| time (UTC) | temp F | wind direction | speed MPH | gust MPH | rain 1hr in | rain 24hr in | rain mn in | humidity % | barometer mb |
| 20260508190002 | 69 | 283 | 3.0 | 7.0 | 0.00 | 0.00 | 0.00 | 27 | 1002.5 |
| 20260508184903 | 69 | 315 | 3.0 | 5.0 | 0.00 | 0.00 | 0.00 | 26 | 1002.7 |
| 20260508183932 | 69 | 259 | 3.0 | 4.0 | 0.00 | 0.00 | 0.00 | 29 | 1002.8 |
| 20260508182902 | 69 | 278 | 2.0 | 4.0 | 0.00 | 0.00 | 0.00 | 30 | 1003.0 |
| 20260508181903 | 68 | 292 | 3.0 | 3.0 | 0.00 | 0.00 | 0.00 | 26 | 1003.1 |
| 20260508180901 | 68 | 267 | 1.0 | 1.0 | 0.00 | 0.00 | 0.00 | 29 | 1003.4 |
| 20260508175932 | 68 | 282 | 2.0 | 3.0 | 0.00 | 0.00 | 0.00 | 31 | 1003.6 |
| 20260508175002 | 68 | 275 | 1.0 | 4.0 | 0.00 | 0.00 | 0.00 | 31 | 1003.8 |
| 20260508173933 | 67 | 277 | 1.0 | 2.0 | 0.00 | 0.00 | 0.00 | 30 | 1004.0 |
| 20260508172901 | 66 | 264 | 2.0 | 3.0 | 0.00 | 0.00 | 0.00 | 34 | 1004.2 |
| 20260508171903 | 65 | 276 | 2.0 | 4.0 | 0.00 | 0.00 | 0.00 | 34 | 1004.4 |
| 20260508170902 | 65 | 282 | 2.0 | 3.0 | 0.00 | 0.00 | 0.00 | 32 | 1004.7 |
| 20260508165902 | 64 | 259 | 2.0 | 3.0 | 0.00 | 0.00 | 0.00 | 35 | 1004.8 |
| 20260508164903 | 62 | 280 | 1.0 | 2.0 | 0.00 | 0.00 | 0.00 | 38 | 1004.9 |
| 20260508163901 | 61 | 305 | 1.0 | 2.0 | 0.00 | 0.00 | 0.00 | 38 | 1005.0 |
| 20260508162902 | 61 | 273 | 2.0 | 3.0 | 0.00 | 0.00 | 0.00 | 35 | 1005.2 |
| 20260508161902 | 62 | 269 | 2.0 | 3.0 | 0.00 | 0.00 | 0.00 | 36 | 1005.2 |
| 20260508160903 | 62 | 273 | 2.0 | 3.0 | 0.00 | 0.00 | 0.00 | 37 | 1005.3 |
| 20260508155902 | 61 | 267 | 2.0 | 2.0 | 0.00 | 0.00 | 0.00 | 39 | 1005.4 |
| 20260508154901 | 60 | 274 | 2.0 | 3.0 | 0.00 | 0.00 | 0.00 | 40 | 1005.4 |
| 20260508153932 | 60 | 289 | 2.0 | 3.0 | 0.00 | 0.00 | 0.00 | 39 | 1005.5 |
| 20260508152902 | 60 | 276 | 2.0 | 3.0 | 0.00 | 0.00 | 0.00 | 38 | 1005.6 |
| 20260508151902 | 60 | 289 | 1.0 | 2.0 | 0.00 | 0.00 | 0.00 | 38 | 1005.8 |
| 20260508150902 | 60 | 276 | 2.0 | 3.0 | 0.00 | 0.00 | 0.00 | 37 | 1005.8 |
| 20260508145902 | 59 | 262 | 1.0 | 2.0 | 0.00 | 0.00 | 0.00 | 40 | 1006.0 |
| 20260508144902 | 58 | 259 | 0.0 | 1.0 | 0.00 | 0.00 | 0.00 | 40 | 1006.0 |
| 20260508143902 | 57 | 262 | 1.0 | 2.0 | 0.00 | 0.00 | 0.00 | 42 | 1006.0 |
| 20260508142903 | 57 | 246 | 0.0 | 1.0 | 0.00 | 0.00 | 0.00 | 41 | 1006.1 |
| 20260508141902 | 56 | 241 | 2.0 | 3.0 | 0.00 | 0.00 | 0.00 | 40 | 1006.2 |
| 20260508140902 | 56 | 205 | 1.0 | 2.0 | 0.00 | 0.00 | 0.00 | 42 | 1006.2 |
| 20260508135933 | 55 | 262 | 1.0 | 2.0 | 0.00 | 0.00 | 0.00 | 43 | 1006.3 |
| 20260508134902 | 55 | 262 | 1.0 | 2.0 | 0.00 | 0.00 | 0.00 | 42 | 1006.3 |
| 20260508133902 | 54 | 268 | 2.0 | 4.0 | 0.00 | 0.00 | 0.00 | 44 | 1006.4 |
| 20260508132902 | 52 | 250 | 1.0 | 3.0 | 0.00 | 0.00 | 0.00 | 44 | 1006.5 |
| 20260508131902 | 51 | 250 | 0.0 | 2.0 | 0.00 | 0.00 | 0.00 | 44 | 1006.6 |
| 20260508130903 | 50 | 226 | 2.0 | 3.0 | 0.00 | 0.00 | 0.00 | 47 | 1006.7 |
| 20260508125903 | 49 | 231 | 1.0 | 2.0 | 0.00 | 0.00 | 0.00 | 48 | 1006.7 |
| 20260508124932 | 48 | 202 | 2.0 | 4.0 | 0.00 | 0.00 | 0.00 | 50 | 1006.8 |
| 20260508123902 | 48 | 215 | 2.0 | 3.0 | 0.00 | 0.00 | 0.00 | 49 | 1006.8 |
| 20260508122902 | 46 | 221 | 1.0 | 2.0 | 0.00 | 0.00 | 0.00 | 49 | 1006.7 |
| 20260508121902 | 46 | 219 | 1.0 | 3.0 | 0.00 | 0.00 | 0.00 | 51 | 1006.8 |
| 20260508120902 | 45 | 224 | 0.0 | 2.0 | 0.00 | 0.00 | 0.00 | 50 | 1006.8 |
| 20260508115932 | 44 | 220 | 1.0 | 2.0 | 0.00 | 0.00 | 0.00 | 52 | 1006.7 |
| 20260508114902 | 44 | 233 | 0.0 | 1.0 | 0.00 | 0.00 | 0.00 | 52 | 1006.7 |
| 20260508113903 | 44 | 235 | 0.0 | 0.0 | 0.00 | 0.00 | 0.00 | 51 | 1006.7 |
| 20260508112902 | 44 | 235 | 0.0 | 0.0 | 0.00 | 0.00 | 0.00 | 50 | 1006.7 |
| 20260508111902 | 44 | 241 | 1.0 | 2.0 | 0.00 | 0.00 | 0.00 | 50 | 1006.7 |
| 20260508110902 | 44 | 241 | 1.0 | 2.0 | 0.00 | 0.00 | 0.00 | 49 | 1006.7 |
| 20260508105902 | 44 | 238 | 2.0 | 3.0 | 0.00 | 0.00 | 0.00 | 50 | 1006.6 |
| 20260508104902 | 44 | 231 | 2.0 | 3.0 | 0.00 | 0.00 | 0.00 | 50 | 1006.5 |
| 20260508103902 | 44 | 236 | 2.0 | 3.0 | 0.00 | 0.00 | 0.00 | 50 | 1006.7 |
| 20260508102902 | 44 | 235 | 2.0 | 3.0 | 0.00 | 0.00 | 0.00 | 52 | 1006.7 |
| 20260508101902 | 43 | 228 | 2.0 | 3.0 | 0.00 | 0.00 | 0.00 | 52 | 1006.7 |
| 20260508100902 | 43 | 223 | 3.0 | 5.0 | 0.00 | 0.00 | 0.00 | 52 | 1006.7 |
| 20260508095902 | 43 | 226 | 2.0 | 3.0 | 0.00 | 0.00 | 0.00 | 53 | 1006.8 |
| 20260508094902 | 43 | 221 | 2.0 | 3.0 | 0.00 | 0.00 | 0.00 | 52 | 1006.8 |
| 20260508093902 | 42 | 233 | 2.0 | 2.0 | 0.00 | 0.00 | 0.00 | 54 | 1006.9 |
| 20260508092902 | 42 | 235 | 2.0 | 2.0 | 0.00 | 0.00 | 0.00 | 54 | 1007.0 |
| 20260508091902 | 43 | 236 | 0.0 | 2.0 | 0.00 | 0.00 | 0.00 | 52 | 1006.9 |
| 20260508090902 | 43 | 236 | 0.0 | 0.0 | 0.00 | 0.00 | 0.00 | 53 | 1006.9 |
| 20260508085902 | 43 | 234 | 0.0 | 0.0 | 0.00 | 0.00 | 0.00 | 51 | 1007.0 |
| 20260508084902 | 43 | 233 | 1.0 | 1.0 | 0.00 | 0.00 | 0.00 | 51 | 1007.0 |
| 20260508083902 | 43 | 224 | 1.0 | 2.0 | 0.00 | 0.00 | 0.00 | 52 | 1006.9 |
| 20260508082902 | 43 | 238 | 0.0 | 0.0 | 0.00 | 0.00 | 0.00 | 52 | 1007.1 |
| 20260508081902 | 44 | 224 | 0.0 | 0.0 | 0.00 | 0.00 | 0.00 | 51 | 1007.1 |
| 20260508080902 | 44 | 221 | 0.0 | 0.0 | 0.00 | 0.00 | 0.00 | 51 | 1007.3 |
| 20260508075902 | 44 | 236 | 1.0 | 2.0 | 0.00 | 0.00 | 0.00 | 51 | 1007.3 |
| 20260508074902 | 44 | 236 | 1.0 | 2.0 | 0.00 | 0.00 | 0.00 | 51 | 1007.4 |
| 20260508073902 | 44 | 217 | 2.0 | 2.0 | 0.00 | 0.00 | 0.00 | 52 | 1007.4 |
| 20260508072902 | 44 | 218 | 1.0 | 2.0 | 0.00 | 0.00 | 0.00 | 52 | 1007.5 |
| 20260508071932 | 44 | 230 | 0.0 | 0.0 | 0.00 | 0.00 | 0.00 | 52 | 1007.6 |
| 20260508070902 | 44 | 233 | 0.0 | 0.0 | 0.00 | 0.00 | 0.00 | 52 | 1007.6 |
| 20260508065902 | 44 | 230 | 0.0 | 0.0 | 0.00 | 0.00 | 0.00 | 52 | 1007.6 |
| 20260508064902 | 45 | 223 | 0.0 | 0.0 | 0.00 | 0.00 | 0.00 | 52 | 1007.6 |
| 20260508063902 | 45 | 231 | 0.0 | 0.0 | 0.00 | 0.00 | 0.00 | 51 | 1007.7 |
| 20260508062902 | 45 | 231 | 0.0 | 0.0 | 0.00 | 0.00 | 0.00 | 53 | 1007.8 |
| 20260508061902 | 45 | 223 | 0.0 | 0.0 | 0.00 | 0.00 | 0.00 | 54 | 1007.9 |
| 20260508060902 | 45 | 233 | 1.0 | 1.0 | 0.00 | 0.00 | 0.00 | 55 | 1007.9 |
| 20260508055901 | 45 | 224 | 1.0 | 2.0 | 0.00 | 0.00 | 0.00 | 54 | 1007.9 |
| 20260508054902 | 46 | 209 | 0.0 | 0.0 | 0.00 | 0.00 | 0.00 | 55 | 1007.9 |
| 20260508053902 | 45 | 209 | 1.0 | 1.0 | 0.00 | 0.00 | 0.00 | 54 | 1008.0 |
| 20260508052902 | 45 | 197 | 2.0 | 3.0 | 0.00 | 0.00 | 0.00 | 56 | 1008.1 |
| 20260508051902 | 45 | 196 | 1.0 | 1.0 | 0.00 | 0.00 | 0.00 | 55 | 1008.1 |
| 20260508050902 | 46 | 210 | 1.0 | 1.0 | 0.00 | 0.00 | 0.00 | 53 | 1008.2 |
| 20260508045903 | 45 | 207 | 1.0 | 1.0 | 0.00 | 0.00 | 0.00 | 53 | 1008.2 |
| 20260508044932 | 45 | 205 | 0.0 | 0.0 | 0.00 | 0.00 | 0.00 | 52 | 1008.3 |
| 20260508043932 | 46 | 217 | 0.0 | 0.0 | 0.00 | 0.00 | 0.00 | 55 | 1008.4 |
| 20260508042902 | 46 | 220 | 0.0 | 0.0 | 0.00 | 0.00 | 0.00 | 53 | 1008.4 |
| 20260508041902 | 46 | 223 | 0.0 | 0.0 | 0.00 | 0.00 | 0.00 | 52 | 1008.4 |
| 20260508040902 | 46 | 227 | 0.0 | 0.0 | 0.00 | 0.00 | 0.00 | 52 | 1008.5 |
| 20260508035902 | 46 | 227 | 0.0 | 0.0 | 0.00 | 0.00 | 0.00 | 50 | 1008.5 |
| 20260508034902 | 46 | 227 | 0.0 | 0.0 | 0.00 | 0.00 | 0.00 | 48 | 1008.6 |
| 20260508033902 | 47 | 227 | 0.0 | 0.0 | 0.00 | 0.00 | 0.00 | 48 | 1008.7 |
| 20260508032903 | 47 | 227 | 0.0 | 0.0 | 0.00 | 0.00 | 0.00 | 48 | 1008.7 |
| 20260508031931 | 47 | 227 | 0.0 | 0.0 | 0.00 | 0.00 | 0.00 | 46 | 1008.7 |
| 20260508030902 | 47 | 227 | 0.0 | 0.0 | 0.00 | 0.00 | 0.00 | 45 | 1008.6 |
| 20260508025902 | 48 | 227 | 0.0 | 0.0 | 0.00 | 0.00 | 0.00 | 48 | 1008.7 |
| 20260508024902 | 48 | 227 | 0.0 | 0.0 | 0.00 | 0.00 | 0.00 | 48 | 1008.6 |
| 20260508023902 | 48 | 227 | 0.0 | 0.0 | 0.00 | 0.00 | 0.00 | 45 | 1008.6 |
| 20260508022902 | 49 | 227 | 0.0 | 0.0 | 0.00 | 0.00 | 0.00 | 45 | 1008.6 |
| 20260508021933 | 49 | 227 | 0.0 | 0.0 | 0.00 | 0.00 | 0.00 | 44 | 1008.6 |
| 20260508020902 | 50 | 227 | 0.0 | 0.0 | 0.00 | 0.00 | 0.00 | 44 | 1008.5 |
| 20260508015902 | 50 | 227 | 0.0 | 0.0 | 0.00 | 0.00 | 0.00 | 44 | 1008.5 |
| 20260508014903 | 50 | 227 | 0.0 | 0.0 | 0.00 | 0.00 | 0.00 | 43 | 1008.3 |
| 20260508013902 | 52 | 227 | 0.0 | 0.0 | 0.00 | 0.00 | 0.00 | 44 | 1008.3 |
| 20260508012932 | 53 | 236 | 0.0 | 0.0 | 0.00 | 0.00 | 0.00 | 42 | 1008.2 |
| 20260508011902 | 55 | 271 | 0.0 | 0.0 | 0.00 | 0.00 | 0.00 | 39 | 1008.2 |
| 20260508010932 | 55 | 271 | 0.0 | 0.0 | 0.00 | 0.00 | 0.00 | 37 | 1008.2 |
| 20260508005902 | 56 | 265 | 0.0 | 0.0 | 0.00 | 0.00 | 0.00 | 36 | 1008.2 |
| 20260508004902 | 56 | 272 | 0.0 | 0.0 | 0.00 | 0.00 | 0.00 | 36 | 1008.2 |
| 20260508003902 | 56 | 275 | 0.0 | 0.0 | 0.00 | 0.00 | 0.00 | 34 | 1008.2 |
| 20260508002902 | 56 | 270 | 0.0 | 1.0 | 0.00 | 0.00 | 0.00 | 36 | 1008.1 |
| 20260508001932 | 56 | 268 | 2.0 | 3.0 | 0.00 | 0.00 | 0.00 | 33 | 1008.2 |
| 20260508000902 | 57 | 274 | 1.0 | 2.0 | 0.00 | 0.00 | 0.00 | 34 | 1008.2 |
| 20260507235902 | 57 | 296 | 1.0 | 2.0 | 0.00 | 0.00 | 0.00 | 33 | 1008.3 |
| 20260507234902 | 56 | 278 | 0.0 | 1.0 | 0.00 | 0.00 | 0.00 | 34 | 1008.4 |
| 20260507233902 | 57 | 274 | 2.0 | 2.0 | 0.00 | 0.00 | 0.00 | 31 | 1008.4 |
| 20260507232932 | 57 | 248 | 2.0 | 3.0 | 0.00 | 0.00 | 0.00 | 31 | 1008.6 |
| 20260507231902 | 57 | 299 | 0.0 | 1.0 | 0.00 | 0.00 | 0.00 | 30 | 1008.6 |
| 20260507230902 | 57 | 257 | 2.0 | 3.0 | 0.00 | 0.00 | 0.00 | 31 | 1008.7 |
| 20260507225902 | 57 | 273 | 1.0 | 2.0 | 0.00 | 0.00 | 0.00 | 30 | 1008.8 |
| 20260507224902 | 57 | 238 | 3.0 | 4.0 | 0.00 | 0.00 | 0.00 | 30 | 1008.8 |
| 20260507223932 | 57 | 254 | 2.0 | 3.0 | 0.00 | 0.00 | 0.00 | 32 | 1008.9 |
| 20260507222902 | 57 | 269 | 1.0 | 2.0 | 0.00 | 0.00 | 0.00 | 31 | 1009.0 |
| 20260507221902 | 57 | 265 | 1.0 | 1.0 | 0.00 | 0.00 | 0.00 | 31 | 1008.9 |
| 20260507220902 | 57 | 264 | 2.0 | 3.0 | 0.00 | 0.00 | 0.00 | 32 | 1009.1 |
| 20260507215902 | 57 | 295 | 0.0 | 0.0 | 0.00 | 0.00 | 0.00 | 30 | 1009.2 |
| 20260507214902 | 57 | 263 | 2.0 | 3.0 | 0.00 | 0.00 | 0.00 | 32 | 1009.1 |
| 20260507213902 | 57 | 286 | 1.0 | 2.0 | 0.00 | 0.00 | 0.00 | 30 | 1009.1 |
| 20260507212902 | 56 | 255 | 2.0 | 3.0 | 0.00 | 0.00 | 0.00 | 30 | 1009.2 |
| 20260507211932 | 57 | 241 | 1.0 | 3.0 | 0.00 | 0.00 | 0.00 | 31 | 1009.4 |
| 20260507210902 | 56 | 278 | 2.0 | 3.0 | 0.00 | 0.00 | 0.00 | 33 | 1009.4 |
| 20260507205902 | 56 | 267 | 0.0 | 1.0 | 0.00 | 0.00 | 0.00 | 32 | 1009.5 |
| 20260507204902 | 56 | 226 | 2.0 | 4.0 | 0.00 | 0.00 | 0.00 | 32 | 1009.5 |
| 20260507203902 | 56 | 278 | 0.0 | 1.0 | 0.00 | 0.00 | 0.00 | 31 | 1009.7 |
| 20260507203002 | 56 | 309 | 3.0 | 6.0 | 0.00 | 0.00 | 0.00 | 31 | 1009.7 |
| 20260507201902 | 56 | 258 | 2.0 | 4.0 | 0.00 | 0.00 | 0.00 | 34 | 1009.9 |
| 20260507200903 | 56 | 221 | 2.0 | 3.0 | 0.00 | 0.00 | 0.00 | 31 | 1010.0 |
| 20260507195902 | 56 | 268 | 2.0 | 3.0 | 0.00 | 0.00 | 0.00 | 32 | 1010.2 |
| 20260507194901 | 57 | 328 | 3.0 | 5.0 | 0.00 | 0.00 | 0.00 | 31 | 1010.3 |
| 20260507193902 | 58 | 262 | 1.0 | 2.0 | 0.00 | 0.00 | 0.00 | 30 | 1010.2 |
| 20260507192902 | 57 | 41 | 2.0 | 3.0 | 0.00 | 0.00 | 0.00 | 31 | 1010.3 |
| 20260507191902 | 56 | 231 | 2.0 | 2.0 | 0.00 | 0.00 | 0.00 | 32 | 1010.5 |
| 20260507190902 | 56 | 256 | 1.0 | 3.0 | 0.00 | 0.00 | 0.00 | 33 | 1010.4 |